Time,TemperatureF,DewpointF,PressureIn,WindDirection,WindDirectionDegrees,WindSpeedMPH,WindSpeedGustMPH,Humidity,HourlyPrecipIn,Conditions,Clouds,dailyrainin,SoftwareType,DateUTC
2013-08-16 00:00:00,68.9,59.8,29.80,SE,134,5.0,15.0,73,0.00,,,0.60,VWS V14.01,2013-08-16 05:00:00,
2013-08-16 00:01:00,68.8,59.3,29.80,SSE,155,9.0,13.0,72,0.00,,,0.00,VWS V14.01,2013-08-16 05:01:00,
2013-08-16 00:06:00,68.8,59.3,29.79,SSE,149,9.0,15.0,72,0.00,,,0.00,VWS V14.01,2013-08-16 05:06:00,
2013-08-16 00:11:00,68.8,58.9,29.79,SSE,155,9.0,17.0,71,0.00,,,0.00,VWS V14.01,2013-08-16 05:11:00,
2013-08-16 00:15:00,69.2,59.3,29.80,SE,134,9.0,15.0,71,0.00,,,0.60,VWS V14.01,2013-08-16 05:15:00,
2013-08-16 00:16:00,68.8,58.9,29.79,SSE,163,8.0,15.0,71,0.00,,,0.00,VWS V14.01,2013-08-16 05:16:00,
2013-08-16 00:21:00,68.7,59.2,29.79,SSE,151,8.0,18.0,72,0.00,,,0.00,VWS V14.01,2013-08-16 05:21:00,
2013-08-16 00:26:00,68.5,59.0,29.79,SE,144,9.0,18.0,72,0.00,,,0.00,VWS V14.01,2013-08-16 05:26:00,
2013-08-16 00:30:00,69.5,59.6,29.80,SSE,161,9.0,17.0,71,0.00,,,0.60,VWS V14.01,2013-08-16 05:30:00,
2013-08-16 00:31:00,68.4,59.3,29.79,SSE,165,11.0,17.0,73,0.00,,,0.00,VWS V14.01,2013-08-16 05:31:00,
2013-08-16 00:36:00,68.3,59.2,29.79,South,176,14.0,17.0,73,0.00,,,0.00,VWS V14.01,2013-08-16 05:36:00,
2013-08-16 00:41:00,68.2,59.1,29.79,SSE,158,13.0,19.0,73,0.00,,,0.00,VWS V14.01,2013-08-16 05:41:00,
2013-08-16 00:45:00,69.1,59.2,29.80,SSE,154,8.0,16.0,71,0.00,,,0.60,VWS V14.01,2013-08-16 05:45:00,
2013-08-16 00:46:00,68.1,59.0,29.79,SSE,158,9.0,13.0,73,0.00,,,0.00,VWS V14.01,2013-08-16 05:46:00,
2013-08-16 00:51:00,68.0,59.3,29.79,SSE,164,9.0,15.0,74,0.00,,,0.00,VWS V14.01,2013-08-16 05:51:00,
2013-08-16 00:56:00,68.0,59.3,29.79,South,173,11.0,22.0,74,0.00,,,0.00,VWS V14.01,2013-08-16 05:56:00,
2013-08-16 01:00:00,68.8,59.3,29.80,SSE,160,11.0,16.0,72,0.00,,,0.00,VWS V14.01,2013-08-16 06:00:00,
2013-08-16 01:01:00,67.9,59.2,29.79,SSE,153,13.0,17.0,74,0.00,,,0.00,VWS V14.01,2013-08-16 06:01:00,
2013-08-16 01:06:00,67.8,59.1,29.79,SE,136,14.0,18.0,74,0.00,,,0.00,VWS V14.01,2013-08-16 06:06:00,
2013-08-16 01:11:00,67.6,58.9,29.79,SSE,160,13.0,18.0,74,0.00,,,0.00,VWS V14.01,2013-08-16 06:11:00,
2013-08-16 01:15:00,68.8,59.3,29.79,SE,143,14.0,17.0,72,0.00,,,0.00,VWS V14.01,2013-08-16 06:15:00,
2013-08-16 01:16:00,67.4,59.1,29.79,SSE,148,10.0,17.0,75,0.00,,,0.00,VWS V14.01,2013-08-16 06:16:00,
2013-08-16 01:21:00,67.2,59.3,29.79,SSE,155,11.0,17.0,76,0.00,,,0.00,VWS V14.01,2013-08-16 06:21:00,
2013-08-16 01:26:00,67.0,59.1,29.79,SSE,158,11.0,17.0,76,0.00,,,0.00,VWS V14.01,2013-08-16 06:26:00,
2013-08-16 01:30:00,68.4,59.3,29.79,South,182,8.0,18.0,73,0.00,,,0.00,VWS V14.01,2013-08-16 06:30:00,
2013-08-16 01:31:00,66.8,58.9,29.79,SSE,151,13.0,16.0,76,0.00,,,0.00,VWS V14.01,2013-08-16 06:31:00,
2013-08-16 01:36:00,66.8,58.9,29.79,SSE,153,13.0,16.0,76,0.00,,,0.00,VWS V14.01,2013-08-16 06:36:00,
2013-08-16 01:41:00,66.8,58.9,29.79,South,171,9.0,16.0,76,0.00,,,0.00,VWS V14.01,2013-08-16 06:41:00,
2013-08-16 01:45:00,68.2,59.1,29.79,SSE,167,10.0,19.0,73,0.00,,,0.00,VWS V14.01,2013-08-16 06:45:00,
2013-08-16 01:46:00,66.6,59.1,29.79,SSE,152,13.0,15.0,77,0.00,,,0.00,VWS V14.01,2013-08-16 06:46:00,
2013-08-16 01:51:00,66.5,59.0,29.79,SSE,168,11.0,17.0,77,0.00,,,0.00,VWS V14.01,2013-08-16 06:51:00,
2013-08-16 01:56:00,66.5,59.0,29.79,SSE,160,10.0,18.0,77,0.00,,,0.00,VWS V14.01,2013-08-16 06:56:00,
2013-08-16 02:00:00,67.9,59.2,29.79,South,175,15.0,22.0,74,0.00,,,0.00,VWS V14.01,2013-08-16 07:00:00,
2013-08-16 02:01:00,66.4,58.9,29.79,SSE,156,9.0,15.0,77,0.00,,,0.00,VWS V14.01,2013-08-16 07:01:00,
2013-08-16 02:06:00,66.4,58.9,29.79,SSE,155,11.0,17.0,77,0.00,,,0.00,VWS V14.01,2013-08-16 07:06:00,
2013-08-16 02:11:00,66.3,58.8,29.79,South,183,12.0,18.0,77,0.00,,,0.00,VWS V14.01,2013-08-16 07:11:00,
2013-08-16 02:15:00,67.5,59.2,29.79,SSE,161,17.0,18.0,75,0.00,,,0.00,VWS V14.01,2013-08-16 07:15:00,
2013-08-16 02:16:00,66.2,58.7,29.79,South,187,14.0,16.0,77,0.00,,,0.00,VWS V14.01,2013-08-16 07:16:00,
2013-08-16 02:21:00,66.2,58.7,29.79,South,174,11.0,16.0,77,0.00,,,0.00,VWS V14.01,2013-08-16 07:21:00,
2013-08-16 02:26:00,66.2,58.7,29.79,South,171,8.0,17.0,77,0.00,,,0.00,VWS V14.01,2013-08-16 07:26:00,
2013-08-16 02:30:00,66.9,59.0,29.79,SSE,168,10.0,17.0,76,0.00,,,0.00,VWS V14.01,2013-08-16 07:30:00,
2013-08-16 02:31:00,66.1,58.6,29.79,SSE,166,14.0,17.0,77,0.00,,,0.00,VWS V14.01,2013-08-16 07:31:00,
2013-08-16 02:36:00,66.1,58.6,29.79,SSE,162,13.0,18.0,77,0.00,,,0.00,VWS V14.01,2013-08-16 07:36:00,
2013-08-16 02:41:00,65.9,58.4,29.79,South,176,9.0,18.0,77,0.00,,,0.00,VWS V14.01,2013-08-16 07:41:00,
2013-08-16 02:45:00,66.7,58.8,29.79,SE,138,12.0,17.0,76,0.00,,,0.00,VWS V14.01,2013-08-16 07:45:00,
2013-08-16 02:46:00,65.8,58.7,29.79,SSE,155,17.0,17.0,78,0.00,,,0.00,VWS V14.01,2013-08-16 07:46:00,
2013-08-16 02:51:00,65.7,58.5,29.79,SSE,159,8.0,17.0,78,0.00,,,0.00,VWS V14.01,2013-08-16 07:51:00,
2013-08-16 02:56:00,65.5,58.7,29.79,SSE,152,9.0,17.0,79,0.00,,,0.00,VWS V14.01,2013-08-16 07:56:00,
2013-08-16 03:00:00,66.5,59.0,29.79,SSE,149,12.0,18.0,77,0.00,,,0.00,VWS V14.01,2013-08-16 08:00:00,
2013-08-16 03:01:00,65.4,58.6,29.79,SSE,165,9.0,11.0,79,0.00,,,0.00,VWS V14.01,2013-08-16 08:01:00,
2013-08-16 03:06:00,65.4,58.6,29.79,South,190,10.0,17.0,79,0.00,,,0.00,VWS V14.01,2013-08-16 08:06:00,
2013-08-16 03:11:00,65.5,58.4,29.79,South,186,16.0,19.0,78,0.00,,,0.00,VWS V14.01,2013-08-16 08:11:00,
2013-08-16 03:15:00,66.2,58.7,29.79,South,184,16.0,18.0,77,0.00,,,0.00,VWS V14.01,2013-08-16 08:15:00,
2013-08-16 03:16:00,65.5,58.4,29.79,SSE,159,17.0,17.0,78,0.00,,,0.00,VWS V14.01,2013-08-16 08:16:00,
2013-08-16 03:21:00,65.5,58.4,29.79,South,169,10.0,21.0,78,0.00,,,0.00,VWS V14.01,2013-08-16 08:21:00,
2013-08-16 03:26:00,65.4,58.3,29.79,South,173,10.0,21.0,78,0.00,,,0.00,VWS V14.01,2013-08-16 08:26:00,
2013-08-16 03:30:00,66.1,58.6,29.79,SSE,161,10.0,17.0,77,0.00,,,0.00,VWS V14.01,2013-08-16 08:30:00,
2013-08-16 03:31:00,65.3,58.2,29.79,SSE,163,17.0,17.0,78,0.00,,,0.00,VWS V14.01,2013-08-16 08:31:00,
2013-08-16 03:36:00,65.2,58.4,29.79,SSE,163,15.0,17.0,79,0.00,,,0.00,VWS V14.01,2013-08-16 08:36:00,
2013-08-16 03:41:00,65.2,58.4,29.79,SSE,165,10.0,17.0,79,0.00,,,0.00,VWS V14.01,2013-08-16 08:41:00,
2013-08-16 03:45:00,65.9,58.8,29.79,South,186,12.0,18.0,78,0.00,,,0.00,VWS V14.01,2013-08-16 08:45:00,
2013-08-16 03:46:00,65.2,58.4,29.79,South,174,15.0,15.0,79,0.00,,,0.00,VWS V14.01,2013-08-16 08:46:00,
2013-08-16 03:51:00,65.1,58.3,29.79,SSE,167,9.0,17.0,79,0.00,,,0.00,VWS V14.01,2013-08-16 08:51:00,
2013-08-16 03:56:00,65.0,58.2,29.79,SE,138,13.0,19.0,79,0.00,,,0.00,VWS V14.01,2013-08-16 08:56:00,
2013-08-16 04:00:00,65.4,58.6,29.79,SSE,167,10.0,18.0,79,0.00,,,0.00,VWS V14.01,2013-08-16 09:00:00,
2013-08-16 04:01:00,64.9,58.1,29.79,South,171,10.0,16.0,79,0.00,,,0.00,VWS V14.01,2013-08-16 09:01:00,
2013-08-16 04:06:00,64.9,58.1,29.79,SSE,157,13.0,17.0,79,0.00,,,0.00,VWS V14.01,2013-08-16 09:06:00,
2013-08-16 04:11:00,64.7,58.3,29.79,South,178,11.0,17.0,80,0.00,,,0.00,VWS V14.01,2013-08-16 09:11:00,
2013-08-16 04:15:00,65.5,58.4,29.79,SSE,159,11.0,19.0,78,0.00,,,0.00,VWS V14.01,2013-08-16 09:15:00,
2013-08-16 04:16:00,64.6,58.2,29.79,South,174,11.0,13.0,80,0.00,,,0.00,VWS V14.01,2013-08-16 09:16:00,
2013-08-16 04:21:00,64.5,58.1,29.79,South,171,8.0,22.0,80,0.00,,,0.00,VWS V14.01,2013-08-16 09:21:00,
2013-08-16 04:26:00,64.5,58.1,29.79,SE,145,12.0,22.0,80,0.00,,,0.00,VWS V14.01,2013-08-16 09:26:00,
2013-08-16 04:30:00,65.3,58.2,29.79,SSE,159,13.0,21.0,78,0.00,,,0.00,VWS V14.01,2013-08-16 09:30:00,
2013-08-16 04:31:00,64.6,58.2,29.79,South,176,12.0,14.0,80,0.00,,,0.00,VWS V14.01,2013-08-16 09:31:00,
2013-08-16 04:36:00,64.6,58.2,29.79,SSE,164,9.0,18.0,80,0.00,,,0.00,VWS V14.01,2013-08-16 09:36:00,
2013-08-16 04:41:00,64.6,58.2,29.78,South,178,12.0,18.0,80,0.00,,,0.00,VWS V14.01,2013-08-16 09:41:00,
2013-08-16 04:45:00,65.2,58.4,29.79,South,177,9.0,17.0,79,0.00,,,0.00,VWS V14.01,2013-08-16 09:45:00,
2013-08-16 04:46:00,64.5,58.1,29.79,South,187,12.0,14.0,80,0.00,,,0.00,VWS V14.01,2013-08-16 09:46:00,
2013-08-16 04:51:00,64.4,58.0,29.78,South,179,10.0,19.0,80,0.00,,,0.00,VWS V14.01,2013-08-16 09:51:00,
2013-08-16 04:56:00,64.5,58.1,29.78,SSE,155,9.0,19.0,80,0.00,,,0.00,VWS V14.01,2013-08-16 09:56:00,
2013-08-16 05:00:00,64.9,58.1,29.79,SSE,163,13.0,19.0,79,0.00,,,0.00,VWS V14.01,2013-08-16 10:00:00,
2013-08-16 05:01:00,64.4,58.0,29.78,SSE,150,10.0,15.0,80,0.00,,,0.00,VWS V14.01,2013-08-16 10:01:00,
2013-08-16 05:06:00,64.2,58.2,29.78,SSE,160,14.0,17.0,81,0.00,,,0.00,VWS V14.01,2013-08-16 10:06:00,
2013-08-16 05:11:00,64.0,58.0,29.78,SSE,164,17.0,20.0,81,0.00,,,0.00,VWS V14.01,2013-08-16 10:11:00,
2013-08-16 05:15:00,64.6,58.2,29.79,SSW,195,9.0,17.0,80,0.00,,,0.00,VWS V14.01,2013-08-16 10:15:00,
2013-08-16 05:16:00,63.8,58.1,29.78,SSE,159,10.0,14.0,82,0.00,,,0.00,VWS V14.01,2013-08-16 10:16:00,
2013-08-16 05:21:00,63.7,58.0,29.78,SSE,157,11.0,19.0,82,0.00,,,0.00,VWS V14.01,2013-08-16 10:21:00,
2013-08-16 05:25:00,63.7,58.0,29.78,SSE,159,11.0,21.0,82,0.00,,,0.00,VWS V14.01,2013-08-16 10:25:00,
2013-08-16 05:30:00,63.6,57.9,29.78,SSE,152,14.0,14.0,82,0.00,,,0.00,VWS V14.01,2013-08-16 10:30:00,
2013-08-16 05:35:00,63.5,57.8,29.78,South,169,10.0,14.0,82,0.00,,,0.00,VWS V14.01,2013-08-16 10:35:00,
2013-08-16 05:40:00,63.4,57.7,29.78,SSE,153,13.0,20.0,82,0.00,,,0.00,VWS V14.01,2013-08-16 10:40:00,
2013-08-16 05:45:00,63.5,57.8,29.78,SSE,163,15.0,19.0,82,0.00,,,0.00,VWS V14.01,2013-08-16 10:45:00,
2013-08-16 05:54:00,63.3,57.6,29.78,SSE,153,9.0,22.0,82,0.00,,,0.00,VWS V14.01,2013-08-16 10:54:00,
2013-08-16 05:59:00,63.2,57.9,29.78,SSE,159,13.0,22.0,83,0.00,,,0.00,VWS V14.01,2013-08-16 10:59:00,
2013-08-16 06:00:00,64.4,58.0,29.78,SSE,160,10.0,21.0,80,0.00,,,0.00,VWS V14.01,2013-08-16 11:00:00,
2013-08-16 06:04:00,63.2,57.9,29.78,South,182,12.0,17.0,83,0.00,,,0.00,VWS V14.01,2013-08-16 11:04:00,
2013-08-16 06:10:00,63.1,57.8,29.78,SSE,156,10.0,19.0,83,0.00,,,0.00,VWS V14.01,2013-08-16 11:10:00,
2013-08-16 06:15:00,63.0,57.7,29.78,SSE,150,12.0,19.0,83,0.00,,,0.00,VWS V14.01,2013-08-16 11:15:00,
2013-08-16 06:20:00,62.9,57.6,29.78,SSE,162,10.0,18.0,83,0.00,,,0.00,VWS V14.01,2013-08-16 11:20:00,
2013-08-16 06:25:00,62.8,57.5,29.78,SSE,155,9.0,18.0,83,0.00,,,0.00,VWS V14.01,2013-08-16 11:25:00,
2013-08-16 06:30:00,62.8,57.5,29.78,South,182,21.0,21.0,83,0.00,,,0.00,VWS V14.01,2013-08-16 11:30:00,
2013-08-16 06:35:00,62.8,57.5,29.78,South,170,15.0,17.0,83,0.00,,,0.00,VWS V14.01,2013-08-16 11:35:00,
2013-08-16 06:40:00,62.9,57.9,29.79,SSE,167,13.0,21.0,84,0.00,,,0.00,VWS V14.01,2013-08-16 11:40:00,
2013-08-16 06:45:00,62.8,57.8,29.78,SSE,167,14.0,21.0,84,0.00,,,0.00,VWS V14.01,2013-08-16 11:45:00,
2013-08-16 06:50:00,62.9,57.9,29.79,South,170,11.0,24.0,84,0.00,,,0.00,VWS V14.01,2013-08-16 11:50:00,
2013-08-16 06:55:00,62.9,57.9,29.79,South,189,13.0,24.0,84,0.00,,,0.00,VWS V14.01,2013-08-16 11:55:00,
2013-08-16 07:00:00,62.9,57.9,29.79,SSE,157,14.0,24.0,84,0.00,,,0.00,VWS V14.01,2013-08-16 12:00:00,
2013-08-16 07:05:00,63.0,58.0,29.79,SSE,165,14.0,18.0,84,0.00,,,0.00,VWS V14.01,2013-08-16 12:05:00,
2013-08-16 07:10:00,62.9,57.9,29.79,SE,134,10.0,21.0,84,0.00,,,0.00,VWS V14.01,2013-08-16 12:10:00,
2013-08-16 07:15:00,63.0,58.0,29.79,SSE,152,13.0,21.0,84,0.00,,,0.00,VWS V14.01,2013-08-16 12:15:00,
2013-08-16 07:20:00,63.1,58.1,29.79,SE,140,11.0,22.0,84,0.00,,,0.00,VWS V14.01,2013-08-16 12:20:00,
2013-08-16 07:25:00,63.2,58.2,29.79,South,176,15.0,22.0,84,0.00,,,0.00,VWS V14.01,2013-08-16 12:25:00,
2013-08-16 07:30:00,63.4,58.4,29.79,SSE,165,11.0,22.0,84,0.00,,,0.00,VWS V14.01,2013-08-16 12:30:00,
2013-08-16 07:35:00,63.6,58.6,29.79,South,177,15.0,22.0,84,0.00,,,0.00,VWS V14.01,2013-08-16 12:35:00,
2013-08-16 07:40:00,63.8,58.4,29.79,SSW,197,13.0,22.0,83,0.00,,,0.00,VWS V14.01,2013-08-16 12:40:00,
2013-08-16 07:45:00,64.0,58.6,29.79,South,179,11.0,22.0,83,0.00,,,0.00,VWS V14.01,2013-08-16 12:45:00,
2013-08-16 07:50:00,64.1,58.7,29.79,SSE,149,9.0,19.0,83,0.00,,,0.00,VWS V14.01,2013-08-16 12:50:00,
2013-08-16 07:55:00,64.3,58.9,29.79,SSE,165,15.0,19.0,83,0.00,,,0.00,VWS V14.01,2013-08-16 12:55:00,
2013-08-16 08:00:00,64.6,59.2,29.79,SSE,161,14.0,25.0,83,0.00,,,0.00,VWS V14.01,2013-08-16 13:00:00,
2013-08-16 08:05:00,64.9,59.2,29.79,SSE,163,15.0,22.0,82,0.00,,,0.00,VWS V14.01,2013-08-16 13:05:00,
2013-08-16 08:10:00,65.1,59.4,29.79,SSE,159,9.0,22.0,82,0.00,,,0.00,VWS V14.01,2013-08-16 13:10:00,
2013-08-16 08:15:00,65.3,59.6,29.79,South,182,12.0,22.0,82,0.00,,,0.00,VWS V14.01,2013-08-16 13:15:00,
2013-08-16 08:20:00,65.6,59.9,29.79,South,176,12.0,22.0,82,0.00,,,0.00,VWS V14.01,2013-08-16 13:20:00,
2013-08-16 08:25:00,65.8,59.7,29.79,SSE,149,13.0,22.0,81,0.00,,,0.00,VWS V14.01,2013-08-16 13:25:00,
2013-08-16 08:30:00,66.1,60.0,29.79,SSE,165,11.0,22.0,81,0.00,,,0.00,VWS V14.01,2013-08-16 13:30:00,
2013-08-16 08:35:00,66.2,59.8,29.78,SSE,159,10.0,18.0,80,0.00,,,0.00,VWS V14.01,2013-08-16 13:35:00,
2013-08-16 08:40:00,66.2,60.1,29.79,SSE,159,15.0,19.0,81,0.00,,,0.00,VWS V14.01,2013-08-16 13:40:00,
2013-08-16 08:45:00,66.5,60.4,29.79,South,176,16.0,22.0,81,0.00,,,0.00,VWS V14.01,2013-08-16 13:45:00,
2013-08-16 08:50:00,66.5,60.0,29.79,SSE,167,22.0,22.0,80,0.00,,,0.00,VWS V14.01,2013-08-16 13:50:00,
2013-08-16 08:55:00,66.8,60.3,29.79,South,182,18.0,23.0,80,0.00,,,0.00,VWS V14.01,2013-08-16 13:55:00,
2013-08-16 09:00:00,67.1,60.3,29.79,SSE,161,11.0,23.0,79,0.00,,,0.00,VWS V14.01,2013-08-16 14:00:00,
2013-08-16 09:05:00,67.5,60.7,29.78,SSE,165,15.0,19.0,79,0.00,,,0.00,VWS V14.01,2013-08-16 14:05:00,
2013-08-16 09:10:00,67.7,60.5,29.79,SSE,159,14.0,25.0,78,0.00,,,0.00,VWS V14.01,2013-08-16 14:10:00,
2013-08-16 09:15:00,68.0,60.8,29.78,SE,142,12.0,25.0,78,0.00,,,0.00,VWS V14.01,2013-08-16 14:15:00,
2013-08-16 09:20:00,68.2,61.0,29.79,South,172,14.0,25.0,78,0.00,,,0.00,VWS V14.01,2013-08-16 14:20:00,
2013-08-16 09:25:00,68.4,60.8,29.79,SSE,164,9.0,25.0,77,0.00,,,0.00,VWS V14.01,2013-08-16 14:25:00,
2013-08-16 09:30:00,68.8,61.2,29.79,South,175,16.0,25.0,77,0.00,,,0.00,VWS V14.01,2013-08-16 14:30:00,
2013-08-16 09:35:00,69.1,61.5,29.79,South,169,15.0,22.0,77,0.00,,,0.00,VWS V14.01,2013-08-16 14:35:00,
2013-08-16 09:40:00,69.4,61.0,29.79,SSE,159,23.0,23.0,75,0.00,,,0.00,VWS V14.01,2013-08-16 14:40:00,
2013-08-16 09:45:00,69.7,61.3,29.79,SSE,159,14.0,23.0,75,0.00,,,0.00,VWS V14.01,2013-08-16 14:45:00,
2013-08-16 09:50:00,69.9,61.5,29.79,South,181,9.0,26.0,75,0.00,,,0.00,VWS V14.01,2013-08-16 14:50:00,
2013-08-16 09:55:00,70.3,61.5,29.78,SSE,153,14.0,26.0,74,0.00,,,0.00,VWS V14.01,2013-08-16 14:55:00,
2013-08-16 10:00:00,70.5,61.7,29.78,SSE,155,16.0,26.0,74,0.00,,,0.00,VWS V14.01,2013-08-16 15:00:00,
2013-08-16 10:05:00,71.0,62.2,29.78,SSE,157,15.0,27.0,74,0.00,,,0.00,VWS V14.01,2013-08-16 15:05:00,
2013-08-16 10:09:00,71.2,62.4,29.78,South,178,16.0,27.0,74,0.00,,,0.00,VWS V14.01,2013-08-16 15:09:00,
2013-08-16 10:14:00,71.8,62.2,29.78,South,184,13.0,27.0,72,0.00,,,0.00,VWS V14.01,2013-08-16 15:14:00,
2013-08-16 10:15:00,68.0,60.8,29.78,SE,142,24.0,25.0,78,0.00,,,0.00,VWS V14.01,2013-08-16 15:15:00,
2013-08-16 10:19:00,72.0,62.4,29.78,SSE,158,11.0,22.0,72,0.00,,,0.00,VWS V14.01,2013-08-16 15:19:00,
2013-08-16 10:24:00,72.2,62.6,29.78,South,190,11.0,22.0,72,0.00,,,0.00,VWS V14.01,2013-08-16 15:24:00,
2013-08-16 10:29:00,72.5,62.8,29.78,South,184,19.0,23.0,72,0.00,,,0.00,VWS V14.01,2013-08-16 15:29:00,
2013-08-16 10:30:00,68.8,60.8,29.79,SE,142,15.0,25.0,76,0.00,,,0.00,VWS V14.01,2013-08-16 15:30:00,
2013-08-16 10:34:00,72.6,62.5,29.78,SSE,155,16.0,20.0,71,0.00,,,0.00,VWS V14.01,2013-08-16 15:34:00,
2013-08-16 10:39:00,72.6,63.0,29.78,SSE,159,15.0,22.0,72,0.00,,,0.00,VWS V14.01,2013-08-16 15:39:00,
2013-08-16 10:44:00,72.4,62.4,29.78,SSE,164,18.0,26.0,71,0.00,,,0.00,VWS V14.01,2013-08-16 15:44:00,
2013-08-16 10:45:00,69.7,61.3,29.79,South,181,14.0,23.0,75,0.00,,,0.00,VWS V14.01,2013-08-16 15:45:00,
2013-08-16 10:49:00,72.9,63.2,29.78,SSE,164,16.0,18.0,72,0.00,,,0.00,VWS V14.01,2013-08-16 15:49:00,
2013-08-16 10:54:00,73.4,63.3,29.78,South,171,16.0,24.0,71,0.00,,,0.00,VWS V14.01,2013-08-16 15:54:00,
2013-08-16 10:59:00,73.6,63.5,29.78,SE,145,12.0,24.0,71,0.00,,,0.00,VWS V14.01,2013-08-16 15:59:00,
2013-08-16 11:00:00,70.6,61.8,29.78,SSE,158,16.0,26.0,74,0.00,,,0.00,VWS V14.01,2013-08-16 16:00:00,
2013-08-16 11:04:00,73.9,63.4,29.78,SE,142,18.0,22.0,70,0.00,,,0.00,VWS V14.01,2013-08-16 16:04:00,
2013-08-16 11:09:00,74.2,63.3,29.78,SSE,155,23.0,23.0,69,0.00,,,0.00,VWS V14.01,2013-08-16 16:09:00,
2013-08-16 11:14:00,74.5,63.5,29.78,South,181,15.0,23.0,69,0.00,,,0.00,VWS V14.01,2013-08-16 16:14:00,
2013-08-16 11:15:00,71.8,62.2,29.78,South,172,11.0,27.0,72,0.00,,,0.00,VWS V14.01,2013-08-16 16:15:00,
2013-08-16 11:19:00,75.1,64.1,29.78,SSE,150,12.0,16.0,69,0.00,,,0.00,VWS V14.01,2013-08-16 16:19:00,
2013-08-16 11:24:00,75.2,63.4,29.78,South,173,10.0,24.0,67,0.00,,,0.00,VWS V14.01,2013-08-16 16:24:00,
2013-08-16 11:29:00,75.4,63.6,29.78,South,185,10.0,24.0,67,0.00,,,0.00,VWS V14.01,2013-08-16 16:29:00,
2013-08-16 11:30:00,72.5,62.5,29.78,South,179,12.0,23.0,71,0.00,,,0.00,VWS V14.01,2013-08-16 16:30:00,
2013-08-16 11:34:00,75.5,63.2,29.78,South,180,15.0,25.0,66,0.00,,,0.00,VWS V14.01,2013-08-16 16:34:00,
2013-08-16 11:39:00,75.7,63.4,29.78,SSE,163,16.0,25.0,66,0.00,,,0.00,VWS V14.01,2013-08-16 16:39:00,
2013-08-16 11:44:00,75.8,63.1,29.78,SSE,160,14.0,25.0,65,0.00,,,0.00,VWS V14.01,2013-08-16 16:44:00,
2013-08-16 11:45:00,72.4,62.4,29.78,South,177,12.0,26.0,71,0.00,,,0.00,VWS V14.01,2013-08-16 16:45:00,
2013-08-16 11:49:00,76.2,63.5,29.78,SSE,164,16.0,23.0,65,0.00,,,0.00,VWS V14.01,2013-08-16 16:49:00,
2013-08-16 11:54:00,76.5,63.7,29.78,South,169,10.0,23.0,65,0.00,,,0.00,VWS V14.01,2013-08-16 16:54:00,
2013-08-16 11:59:00,76.8,63.1,29.78,South,172,13.0,24.0,63,0.00,,,0.00,VWS V14.01,2013-08-16 16:59:00,
2013-08-16 12:00:00,73.7,63.6,29.78,SE,130,11.0,24.0,71,0.00,,,0.00,VWS V14.01,2013-08-16 17:00:00,
2013-08-16 12:04:00,76.7,63.0,29.78,South,169,10.0,21.0,63,0.00,,,0.00,VWS V14.01,2013-08-16 17:04:00,
2013-08-16 12:09:00,77.1,63.9,29.78,South,188,10.0,21.0,64,0.00,,,0.00,VWS V14.01,2013-08-16 17:09:00,
2013-08-16 12:14:00,77.6,63.4,29.78,South,176,10.0,21.0,62,0.00,,,0.00,VWS V14.01,2013-08-16 17:14:00,
2013-08-16 12:15:00,74.6,63.6,29.78,SSE,162,11.0,23.0,69,0.00,,,0.00,VWS V14.01,2013-08-16 17:15:00,
2013-08-16 12:19:00,77.7,63.5,29.78,SSE,147,9.0,22.0,62,0.00,,,0.00,VWS V14.01,2013-08-16 17:19:00,
2013-08-16 12:24:00,78.0,63.3,29.78,SSE,156,15.0,22.0,61,0.00,,,0.00,VWS V14.01,2013-08-16 17:24:00,
2013-08-16 12:29:00,78.0,62.4,29.78,SE,144,12.0,22.0,59,0.00,,,0.00,VWS V14.01,2013-08-16 17:29:00,
2013-08-16 12:30:00,75.4,63.6,29.78,SE,134,11.0,24.0,67,0.00,,,0.00,VWS V14.01,2013-08-16 17:30:00,
2013-08-16 12:34:00,77.9,61.8,29.78,SSE,157,14.0,24.0,58,0.00,,,0.00,VWS V14.01,2013-08-16 17:34:00,
2013-08-16 12:39:00,78.0,60.9,29.78,SSE,147,14.0,24.0,56,0.00,,,0.00,VWS V14.01,2013-08-16 17:39:00,
2013-08-16 12:44:00,78.3,61.7,29.78,South,188,14.0,24.0,57,0.00,,,0.00,VWS V14.01,2013-08-16 17:44:00,
2013-08-16 12:45:00,75.9,63.2,29.78,SE,144,14.0,25.0,65,0.00,,,0.00,VWS V14.01,2013-08-16 17:45:00,
2013-08-16 12:49:00,78.6,62.0,29.78,South,191,15.0,18.0,57,0.00,,,0.00,VWS V14.01,2013-08-16 17:49:00,
2013-08-16 12:54:00,78.8,63.1,29.78,South,175,17.0,20.0,59,0.00,,,0.00,VWS V14.01,2013-08-16 17:54:00,
2013-08-16 12:59:00,78.8,63.1,29.77,SE,131,11.0,20.0,59,0.00,,,0.00,VWS V14.01,2013-08-16 17:59:00,
2013-08-16 13:00:00,76.7,63.0,29.78,SSW,195,11.0,24.0,63,0.00,,,0.00,VWS V14.01,2013-08-16 18:00:00,
2013-08-16 13:04:00,79.2,63.0,29.77,SSW,192,13.0,21.0,58,0.00,,,0.00,VWS V14.01,2013-08-16 18:04:00,
2013-08-16 13:09:00,79.4,63.2,29.77,South,170,13.0,21.0,58,0.00,,,0.00,VWS V14.01,2013-08-16 18:09:00,
2013-08-16 13:14:00,79.2,62.5,29.77,South,179,13.0,21.0,57,0.00,,,0.00,VWS V14.01,2013-08-16 18:14:00,
2013-08-16 13:15:00,77.6,63.0,29.78,South,179,8.0,21.0,61,0.00,,,0.00,VWS V14.01,2013-08-16 18:15:00,
2013-08-16 13:19:00,79.4,63.2,29.77,SSE,149,12.0,22.0,58,0.00,,,0.00,VWS V14.01,2013-08-16 18:19:00,
2013-08-16 13:24:00,79.8,62.6,29.77,South,176,13.0,22.0,56,0.00,,,0.00,VWS V14.01,2013-08-16 18:24:00,
2013-08-16 13:29:00,80.0,62.2,29.77,ESE,111,10.0,22.0,55,0.00,,,0.00,VWS V14.01,2013-08-16 18:29:00,
2013-08-16 13:30:00,78.0,62.4,29.78,SSE,165,15.0,22.0,59,0.00,,,0.00,VWS V14.01,2013-08-16 18:30:00,
2013-08-16 13:34:00,80.4,62.6,29.77,South,179,11.0,19.0,55,0.00,,,0.00,VWS V14.01,2013-08-16 18:34:00,
2013-08-16 13:39:00,80.5,62.7,29.77,SE,142,11.0,19.0,55,0.00,,,0.00,VWS V14.01,2013-08-16 18:39:00,
2013-08-16 13:44:00,80.4,62.6,29.77,SSE,165,18.0,22.0,55,0.00,,,0.00,VWS V14.01,2013-08-16 18:44:00,
2013-08-16 13:45:00,78.4,61.8,29.78,SSW,199,10.0,24.0,57,0.00,,,0.00,VWS V14.01,2013-08-16 18:45:00,
2013-08-16 13:49:00,80.6,62.3,29.77,South,180,19.0,21.0,54,0.00,,,0.00,VWS V14.01,2013-08-16 18:49:00,
2013-08-16 13:54:00,80.7,62.4,29.77,SE,146,13.0,21.0,54,0.00,,,0.00,VWS V14.01,2013-08-16 18:54:00,
2013-08-16 13:59:00,80.7,61.8,29.77,SSE,159,13.0,21.0,53,0.00,,,0.00,VWS V14.01,2013-08-16 18:59:00,
2013-08-16 14:00:00,78.9,63.7,29.77,SSE,159,17.0,20.0,60,0.00,,,0.00,VWS V14.01,2013-08-16 19:00:00,
2013-08-16 14:04:00,81.1,61.7,29.77,SSE,167,14.0,20.0,52,0.00,,,0.00,VWS V14.01,2013-08-16 19:04:00,
2013-08-16 14:09:00,81.2,61.8,29.77,South,173,11.0,22.0,52,0.00,,,0.00,VWS V14.01,2013-08-16 19:09:00,
2013-08-16 14:14:00,81.2,62.8,29.76,SSE,153,13.0,22.0,54,0.00,,,0.00,VWS V14.01,2013-08-16 19:14:00,
2013-08-16 14:15:00,79.2,63.0,29.77,South,169,17.0,21.0,58,0.00,,,0.00,VWS V14.01,2013-08-16 19:15:00,
2013-08-16 14:19:00,81.5,62.6,29.76,SSE,163,13.0,17.0,53,0.00,,,0.00,VWS V14.01,2013-08-16 19:19:00,
2013-08-16 14:24:00,81.6,62.7,29.76,SE,146,12.0,18.0,53,0.00,,,0.00,VWS V14.01,2013-08-16 19:24:00,
2013-08-16 14:29:00,81.7,62.2,29.76,South,191,10.0,21.0,52,0.00,,,0.00,VWS V14.01,2013-08-16 19:29:00,
2013-08-16 14:30:00,80.0,62.2,29.77,South,176,16.0,22.0,55,0.00,,,0.00,VWS V14.01,2013-08-16 19:30:00,
2013-08-16 14:34:00,82.0,60.8,29.76,South,187,10.0,22.0,49,0.00,,,0.00,VWS V14.01,2013-08-16 19:34:00,
2013-08-16 14:39:00,82.3,62.2,29.76,SSE,156,8.0,22.0,51,0.00,,,0.00,VWS V14.01,2013-08-16 19:39:00,
2013-08-16 14:44:00,82.5,61.8,29.76,South,179,14.0,22.0,50,0.00,,,0.00,VWS V14.01,2013-08-16 19:44:00,
2013-08-16 14:45:00,80.4,62.6,29.77,South,181,15.0,22.0,55,0.00,,,0.00,VWS V14.01,2013-08-16 19:45:00,
2013-08-16 14:49:00,82.7,60.9,29.76,South,174,15.0,19.0,48,0.00,,,0.00,VWS V14.01,2013-08-16 19:49:00,
2013-08-16 14:54:00,82.5,62.4,29.75,SSE,162,9.0,21.0,51,0.00,,,0.00,VWS V14.01,2013-08-16 19:54:00,
2013-08-16 14:59:00,82.4,61.7,29.75,South,181,14.0,23.0,50,0.00,,,0.00,VWS V14.01,2013-08-16 19:59:00,
2013-08-16 15:00:00,80.7,62.4,29.77,South,186,11.0,21.0,54,0.00,,,0.00,VWS V14.01,2013-08-16 20:00:00,
2013-08-16 15:04:00,82.3,61.1,29.76,SSE,157,11.0,21.0,49,0.00,,,0.00,VWS V14.01,2013-08-16 20:04:00,
2013-08-16 15:09:00,82.5,61.8,29.75,SE,138,9.0,22.0,50,0.00,,,0.00,VWS V14.01,2013-08-16 20:09:00,
2013-08-16 15:14:00,82.6,62.5,29.75,SSE,168,14.0,22.0,51,0.00,,,0.00,VWS V14.01,2013-08-16 20:14:00,
2013-08-16 15:15:00,81.3,62.9,29.77,SE,142,10.0,22.0,54,0.00,,,0.00,VWS V14.01,2013-08-16 20:15:00,
2013-08-16 15:19:00,82.9,63.3,29.75,SSW,200,11.0,17.0,52,0.00,,,0.00,VWS V14.01,2013-08-16 20:19:00,
2013-08-16 15:24:00,83.3,62.0,29.75,SE,138,11.0,17.0,49,0.00,,,0.00,VWS V14.01,2013-08-16 20:24:00,
2013-08-16 15:29:00,83.0,62.3,29.75,SSE,151,11.0,20.0,50,0.00,,,0.00,VWS V14.01,2013-08-16 20:29:00,
2013-08-16 15:30:00,81.7,61.7,29.76,South,169,11.0,21.0,51,0.00,,,0.00,VWS V14.01,2013-08-16 20:30:00,
2013-08-16 15:34:00,83.2,62.5,29.75,SSE,153,20.0,20.0,50,0.00,,,0.00,VWS V14.01,2013-08-16 20:34:00,
2013-08-16 15:39:00,83.1,62.4,29.75,SSE,157,16.0,25.0,50,0.00,,,0.00,VWS V14.01,2013-08-16 20:39:00,
2013-08-16 15:44:00,83.2,63.0,29.75,SSE,153,15.0,25.0,51,0.00,,,0.00,VWS V14.01,2013-08-16 20:44:00,
2013-08-16 15:45:00,82.5,61.3,29.76,SSW,202,11.0,22.0,49,0.00,,,0.00,VWS V14.01,2013-08-16 20:45:00,
2013-08-16 15:49:00,83.2,61.9,29.74,South,182,15.0,21.0,49,0.00,,,0.00,VWS V14.01,2013-08-16 20:49:00,
2013-08-16 15:54:00,83.2,62.5,29.74,SE,139,9.0,21.0,50,0.00,,,0.00,VWS V14.01,2013-08-16 20:54:00,
2013-08-16 15:59:00,83.3,60.8,29.74,SSE,159,18.0,22.0,47,0.00,,,0.00,VWS V14.01,2013-08-16 20:59:00,
2013-08-16 16:00:00,82.4,61.7,29.75,SSE,160,9.0,23.0,50,0.00,,,0.00,VWS V14.01,2013-08-16 21:00:00,
2013-08-16 16:04:00,83.1,61.2,29.74,SE,130,11.0,19.0,48,0.00,,,0.00,VWS V14.01,2013-08-16 21:04:00,
2013-08-16 16:09:00,83.2,61.9,29.74,South,177,14.0,21.0,49,0.00,,,0.00,VWS V14.01,2013-08-16 21:09:00,
2013-08-16 16:14:00,83.3,62.0,29.74,SE,139,9.0,21.0,49,0.00,,,0.00,VWS V14.01,2013-08-16 21:14:00,
2013-08-16 16:15:00,82.6,62.5,29.75,SSE,157,13.0,22.0,51,0.00,,,0.00,VWS V14.01,2013-08-16 21:15:00,
2013-08-16 16:19:00,83.2,60.7,29.74,SE,134,10.0,23.0,47,0.00,,,0.00,VWS V14.01,2013-08-16 21:19:00,
2013-08-16 16:24:00,83.2,61.3,29.74,SSE,167,13.0,23.0,48,0.00,,,0.00,VWS V14.01,2013-08-16 21:24:00,
2013-08-16 16:29:00,83.3,61.4,29.74,South,190,15.0,23.0,48,0.00,,,0.00,VWS V14.01,2013-08-16 21:29:00,
2013-08-16 16:30:00,83.0,62.9,29.75,SE,136,12.0,20.0,51,0.00,,,0.00,VWS V14.01,2013-08-16 21:30:00,
2013-08-16 16:34:00,83.4,61.5,29.74,SSE,163,17.0,21.0,48,0.00,,,0.00,VWS V14.01,2013-08-16 21:34:00,
2013-08-16 16:39:00,83.3,61.4,29.74,SSE,163,15.0,21.0,48,0.00,,,0.00,VWS V14.01,2013-08-16 21:39:00,
2013-08-16 16:44:00,83.2,61.3,29.74,SE,138,13.0,21.0,48,0.00,,,0.00,VWS V14.01,2013-08-16 21:44:00,
2013-08-16 16:45:00,83.2,61.9,29.75,SSE,159,15.0,25.0,49,0.00,,,0.00,VWS V14.01,2013-08-16 21:45:00,
2013-08-16 16:49:00,83.3,61.4,29.74,South,188,9.0,18.0,48,0.00,,,0.00,VWS V14.01,2013-08-16 21:49:00,
2013-08-16 16:54:00,83.5,62.2,29.74,SE,140,9.0,18.0,49,0.00,,,0.00,VWS V14.01,2013-08-16 21:54:00,
2013-08-16 16:59:00,83.6,61.7,29.74,SSE,164,15.0,18.0,48,0.00,,,0.00,VWS V14.01,2013-08-16 21:59:00,
2013-08-16 17:00:00,83.2,60.7,29.74,SE,144,14.0,22.0,47,0.00,,,0.00,VWS V14.01,2013-08-16 22:00:00,
2013-08-16 17:04:00,83.5,62.8,29.74,South,169,15.0,16.0,50,0.00,,,0.00,VWS V14.01,2013-08-16 22:04:00,
2013-08-16 17:09:00,83.5,62.2,29.73,SSE,163,11.0,17.0,49,0.00,,,0.00,VWS V14.01,2013-08-16 22:09:00,
2013-08-16 17:14:00,83.7,62.9,29.73,South,173,9.0,17.0,50,0.00,,,0.00,VWS V14.01,2013-08-16 22:14:00,
2013-08-16 17:15:00,83.3,62.6,29.74,South,177,16.0,21.0,50,0.00,,,0.00,VWS V14.01,2013-08-16 22:15:00,
2013-08-16 17:19:00,83.8,62.5,29.73,SSE,159,6.0,16.0,49,0.00,,,0.00,VWS V14.01,2013-08-16 22:19:00,
2013-08-16 17:24:00,83.6,61.7,29.73,SSE,149,13.0,16.0,48,0.00,,,0.00,VWS V14.01,2013-08-16 22:24:00,
2013-08-16 17:29:00,83.3,60.8,29.73,South,177,12.0,19.0,47,0.00,,,0.00,VWS V14.01,2013-08-16 22:29:00,
2013-08-16 17:30:00,83.3,61.4,29.74,SSW,196,9.0,23.0,48,0.00,,,0.00,VWS V14.01,2013-08-16 22:30:00,
2013-08-16 17:34:00,83.4,61.5,29.73,SE,145,8.0,16.0,48,0.00,,,0.00,VWS V14.01,2013-08-16 22:34:00,
2013-08-16 17:39:00,83.6,61.7,29.73,SSE,147,10.0,17.0,48,0.00,,,0.00,VWS V14.01,2013-08-16 22:39:00,
2013-08-16 17:44:00,83.3,61.4,29.73,SSE,167,8.0,17.0,48,0.00,,,0.00,VWS V14.01,2013-08-16 22:44:00,
2013-08-16 17:45:00,83.2,61.9,29.74,ESE,120,12.0,21.0,49,0.00,,,0.00,VWS V14.01,2013-08-16 22:45:00,
2013-08-16 17:49:00,83.4,61.5,29.73,SSE,164,10.0,17.0,48,0.00,,,0.00,VWS V14.01,2013-08-16 22:49:00,
2013-08-16 17:54:00,83.4,61.5,29.73,SSE,155,15.0,17.0,48,0.00,,,0.00,VWS V14.01,2013-08-16 22:54:00,
2013-08-16 17:59:00,83.4,60.9,29.73,SSE,167,9.0,17.0,47,0.00,,,0.00,VWS V14.01,2013-08-16 22:59:00,
2013-08-16 18:00:00,83.6,61.7,29.74,SE,140,13.0,18.0,48,0.00,,,0.00,VWS V14.01,2013-08-16 23:00:00,
2013-08-16 18:04:00,83.2,60.7,29.74,SSE,159,10.0,17.0,47,0.00,,,0.00,VWS V14.01,2013-08-16 23:04:00,
2013-08-16 18:09:00,83.1,60.6,29.73,SE,138,11.0,22.0,47,0.00,,,0.00,VWS V14.01,2013-08-16 23:09:00,
2013-08-16 18:14:00,83.1,61.2,29.74,SSE,162,8.0,22.0,48,0.00,,,0.00,VWS V14.01,2013-08-16 23:14:00,
2013-08-16 18:15:00,83.7,62.4,29.73,South,179,9.0,17.0,49,0.00,,,0.00,VWS V14.01,2013-08-16 23:15:00,
2013-08-16 18:19:00,83.1,61.2,29.73,SSE,159,11.0,18.0,48,0.00,,,0.00,VWS V14.01,2013-08-16 23:19:00,
2013-08-16 18:24:00,83.1,61.8,29.73,SE,132,13.0,18.0,49,0.00,,,0.00,VWS V14.01,2013-08-16 23:24:00,
2013-08-16 18:29:00,83.0,61.1,29.73,SE,132,18.0,18.0,48,0.00,,,0.00,VWS V14.01,2013-08-16 23:29:00,
2013-08-16 18:30:00,83.3,61.4,29.73,SSE,159,13.0,19.0,48,0.00,,,0.00,VWS V14.01,2013-08-16 23:30:00,
2013-08-16 18:34:00,82.8,61.0,29.73,SE,133,11.0,23.0,48,0.00,,,0.00,VWS V14.01,2013-08-16 23:34:00,
2013-08-16 18:39:00,82.6,60.8,29.73,SSE,161,10.0,23.0,48,0.00,,,0.00,VWS V14.01,2013-08-16 23:39:00,
2013-08-16 18:44:00,82.6,61.3,29.73,SSE,154,13.0,23.0,49,0.00,,,0.00,VWS V14.01,2013-08-16 23:44:00,
2013-08-16 18:45:00,83.3,62.0,29.73,SSE,158,15.0,20.0,49,0.00,,,0.00,VWS V14.01,2013-08-16 23:45:00,
2013-08-16 18:49:00,82.5,60.7,29.72,SSE,159,10.0,18.0,48,0.00,,,0.00,VWS V14.01,2013-08-16 23:49:00,
2013-08-16 18:54:00,82.5,61.8,29.73,SSE,162,6.0,18.0,50,0.00,,,0.00,VWS V14.01,2013-08-16 23:54:00,
2013-08-16 18:59:00,82.4,61.7,29.72,SE,138,5.0,18.0,50,0.00,,,0.00,VWS V14.01,2013-08-16 23:59:00,
2013-08-16 19:00:00,83.3,61.4,29.73,SSE,151,7.0,17.0,48,0.00,,,0.00,VWS V14.01,2013-08-17 00:00:00,
2013-08-16 19:04:00,82.2,61.6,29.73,SSE,151,7.0,11.0,50,0.00,,,0.00,VWS V14.01,2013-08-17 00:04:00,
2013-08-16 19:09:00,82.1,61.5,29.73,SSE,161,8.0,14.0,50,0.00,,,0.00,VWS V14.01,2013-08-17 00:09:00,
2013-08-16 19:14:00,81.9,61.3,29.73,SE,133,5.0,15.0,50,0.00,,,0.00,VWS V14.01,2013-08-17 00:14:00,
2013-08-16 19:15:00,83.1,61.2,29.74,SE,124,11.0,22.0,48,0.00,,,0.00,VWS V14.01,2013-08-17 00:15:00,
2013-08-16 19:19:00,81.6,62.1,29.73,SE,132,7.0,16.0,52,0.00,,,0.00,VWS V14.01,2013-08-17 00:19:00,
2013-08-16 19:24:00,81.4,62.5,29.73,SE,142,13.0,17.0,53,0.00,,,0.00,VWS V14.01,2013-08-17 00:24:00,
2013-08-16 19:29:00,81.0,62.1,29.72,SE,135,8.0,17.0,53,0.00,,,0.00,VWS V14.01,2013-08-17 00:29:00,
2013-08-16 19:30:00,83.0,60.5,29.73,SE,145,12.0,18.0,47,0.00,,,0.00,VWS V14.01,2013-08-17 00:30:00,
2013-08-16 19:34:00,80.8,62.5,29.72,SE,143,8.0,15.0,54,0.00,,,0.00,VWS V14.01,2013-08-17 00:34:00,
2013-08-16 19:39:00,80.5,62.2,29.72,South,171,14.0,15.0,54,0.00,,,0.00,VWS V14.01,2013-08-17 00:39:00,
2013-08-16 19:44:00,80.2,61.9,29.72,SE,136,7.0,15.0,54,0.00,,,0.00,VWS V14.01,2013-08-17 00:44:00,
2013-08-16 19:45:00,82.6,61.3,29.73,South,173,18.0,23.0,49,0.00,,,0.00,VWS V14.01,2013-08-17 00:45:00,
2013-08-16 19:49:00,79.9,61.6,29.72,SSE,149,4.0,11.0,54,0.00,,,0.00,VWS V14.01,2013-08-17 00:49:00,
2013-08-16 19:54:00,79.6,61.9,29.72,SSE,151,8.0,13.0,55,0.00,,,0.00,VWS V14.01,2013-08-17 00:54:00,
2013-08-16 19:59:00,79.3,61.6,29.72,SE,129,6.0,15.0,55,0.00,,,0.00,VWS V14.01,2013-08-17 00:59:00,
2013-08-16 20:00:00,82.4,61.7,29.72,SE,131,9.0,18.0,50,0.00,,,0.00,VWS V14.01,2013-08-17 01:00:00,
2013-08-16 20:04:00,79.0,61.8,29.72,SSE,155,9.0,11.0,56,0.00,,,0.00,VWS V14.01,2013-08-17 01:04:00,
2013-08-16 20:09:00,78.7,61.5,29.72,ESE,109,10.0,14.0,56,0.00,,,0.00,VWS V14.01,2013-08-17 01:09:00,
2013-08-16 20:14:00,78.4,61.3,29.72,SE,146,8.0,14.0,56,0.00,,,0.00,VWS V14.01,2013-08-17 01:14:00,
2013-08-16 20:15:00,81.9,61.3,29.73,SSE,161,9.0,15.0,50,0.00,,,0.00,VWS V14.01,2013-08-17 01:15:00,
2013-08-16 20:19:00,78.1,61.0,29.72,SSE,158,8.0,13.0,56,0.00,,,0.00,VWS V14.01,2013-08-17 01:19:00,
2013-08-16 20:24:00,77.7,61.1,29.72,SE,142,9.0,13.0,57,0.00,,,0.00,VWS V14.01,2013-08-17 01:24:00,
2013-08-16 20:29:00,77.3,60.8,29.72,SSE,148,9.0,13.0,57,0.00,,,0.00,VWS V14.01,2013-08-17 01:29:00,
2013-08-16 20:30:00,81.0,62.7,29.72,SE,142,10.0,17.0,54,0.00,,,0.00,VWS V14.01,2013-08-17 01:30:00,
2013-08-16 20:34:00,76.9,60.9,29.72,SE,140,10.0,13.0,58,0.00,,,0.00,VWS V14.01,2013-08-17 01:34:00,
2013-08-16 20:39:00,76.5,61.0,29.72,East,99,5.0,13.0,59,0.00,,,0.00,VWS V14.01,2013-08-17 01:39:00,
2013-08-16 20:44:00,76.2,61.2,29.72,SE,144,11.0,13.0,60,0.00,,,0.00,VWS V14.01,2013-08-17 01:44:00,
2013-08-16 20:45:00,80.2,61.9,29.72,SSE,157,10.0,15.0,54,0.00,,,0.00,VWS V14.01,2013-08-17 01:45:00,
2013-08-16 20:49:00,75.8,61.3,29.72,SE,136,5.0,11.0,61,0.00,,,0.00,VWS V14.01,2013-08-17 01:49:00,
2013-08-16 20:54:00,75.5,61.0,29.72,SE,138,9.0,11.0,61,0.00,,,0.00,VWS V14.01,2013-08-17 01:54:00,
2013-08-16 20:59:00,75.0,61.4,29.72,SE,137,8.0,11.0,63,0.00,,,0.00,VWS V14.01,2013-08-17 01:59:00,
2013-08-16 21:00:00,79.3,61.6,29.72,SSE,153,7.0,15.0,55,0.00,,,0.00,VWS V14.01,2013-08-17 02:00:00,
2013-08-16 21:04:00,74.7,61.2,29.72,ESE,119,7.0,13.0,63,0.00,,,0.00,VWS V14.01,2013-08-17 02:04:00,
2013-08-16 21:09:00,74.4,60.9,29.72,SE,124,7.0,13.0,63,0.00,,,0.00,VWS V14.01,2013-08-17 02:09:00,
2013-08-16 21:14:00,74.0,60.9,29.72,South,171,9.0,14.0,64,0.00,,,0.00,VWS V14.01,2013-08-17 02:14:00,
2013-08-16 21:15:00,78.3,61.2,29.72,SSE,147,9.0,14.0,56,0.00,,,0.00,VWS V14.01,2013-08-17 02:15:00,
2013-08-16 21:19:00,73.7,60.7,29.72,SSE,147,4.0,11.0,64,0.00,,,0.00,VWS V14.01,2013-08-17 02:19:00,
2013-08-16 21:24:00,73.4,60.4,29.72,SE,127,8.0,13.0,64,0.00,,,0.00,VWS V14.01,2013-08-17 02:24:00,
2013-08-16 21:29:00,73.2,60.6,29.72,SE,128,8.0,13.0,65,0.00,,,0.00,VWS V14.01,2013-08-17 02:29:00,
2013-08-16 21:30:00,77.2,60.7,29.72,SSE,156,11.0,13.0,57,0.00,,,0.00,VWS V14.01,2013-08-17 02:30:00,
2013-08-16 21:34:00,72.9,60.3,29.72,SE,140,11.0,13.0,65,0.00,,,0.00,VWS V14.01,2013-08-17 02:34:00,
2013-08-16 21:39:00,72.7,60.1,29.72,SSE,152,8.0,13.0,65,0.00,,,0.00,VWS V14.01,2013-08-17 02:39:00,
2013-08-16 21:44:00,72.4,59.8,29.72,SE,139,10.0,14.0,65,0.00,,,0.00,VWS V14.01,2013-08-17 02:44:00,
2013-08-16 21:45:00,76.2,61.2,29.72,SE,144,8.0,13.0,60,0.00,,,0.00,VWS V14.01,2013-08-17 02:45:00,
2013-08-16 21:49:00,72.2,60.1,29.72,SE,132,8.0,13.0,66,0.00,,,0.00,VWS V14.01,2013-08-17 02:49:00,
2013-08-16 21:54:00,72.1,60.0,29.72,SSE,149,7.0,15.0,66,0.00,,,0.00,VWS V14.01,2013-08-17 02:54:00,
2013-08-16 21:59:00,71.9,59.8,29.72,SSE,150,5.0,15.0,66,0.00,,,0.00,VWS V14.01,2013-08-17 02:59:00,
2013-08-16 22:00:00,75.0,61.4,29.72,SE,143,9.0,11.0,63,0.00,,,0.00,VWS V14.01,2013-08-17 03:00:00,
2013-08-16 22:04:00,71.7,59.6,29.72,SSE,151,7.0,14.0,66,0.00,,,0.00,VWS V14.01,2013-08-17 03:04:00,
2013-08-16 22:09:00,71.7,59.6,29.72,SSE,151,9.0,17.0,66,0.00,,,0.00,VWS V14.01,2013-08-17 03:09:00,
2013-08-16 22:14:00,71.7,59.6,29.72,SSE,167,7.0,17.0,66,0.00,,,0.00,VWS V14.01,2013-08-17 03:14:00,
2013-08-16 22:15:00,74.0,60.9,29.72,ESE,115,10.0,15.0,64,0.00,,,0.00,VWS V14.01,2013-08-17 03:15:00,
2013-08-16 22:19:00,71.5,59.4,29.72,SSE,165,13.0,13.0,66,0.00,,,0.00,VWS V14.01,2013-08-17 03:19:00,
2013-08-16 22:24:00,71.4,59.8,29.72,SE,139,9.0,13.0,67,0.00,,,0.00,VWS V14.01,2013-08-17 03:24:00,
2013-08-16 22:29:00,71.2,59.6,29.72,SE,142,9.0,13.0,67,0.00,,,0.00,VWS V14.01,2013-08-17 03:29:00,
2013-08-16 22:30:00,73.1,60.5,29.72,SE,144,7.0,13.0,65,0.00,,,0.00,VWS V14.01,2013-08-17 03:30:00,
2013-08-16 22:34:00,71.1,59.5,29.72,South,177,9.0,13.0,67,0.00,,,0.00,VWS V14.01,2013-08-17 03:34:00,
2013-08-16 22:39:00,71.1,59.5,29.72,SE,138,9.0,14.0,67,0.00,,,0.00,VWS V14.01,2013-08-17 03:39:00,
2013-08-16 22:44:00,71.0,59.8,29.71,ESE,122,9.0,15.0,68,0.00,,,0.00,VWS V14.01,2013-08-17 03:44:00,
2013-08-16 22:45:00,72.4,60.3,29.72,SSE,153,7.0,14.0,66,0.00,,,0.00,VWS V14.01,2013-08-17 03:45:00,
2013-08-16 22:49:00,71.1,59.5,29.71,SE,128,9.0,16.0,67,0.00,,,0.00,VWS V14.01,2013-08-17 03:49:00,
2013-08-16 22:54:00,71.3,59.2,29.71,ESE,123,8.0,19.0,66,0.00,,,0.00,VWS V14.01,2013-08-17 03:54:00,
2013-08-16 22:59:00,71.4,59.3,29.72,South,176,10.0,19.0,66,0.00,,,0.00,VWS V14.01,2013-08-17 03:59:00,
2013-08-16 23:00:00,71.9,59.8,29.72,SSE,162,8.0,15.0,66,0.00,,,0.00,VWS V14.01,2013-08-17 04:00:00,
2013-08-16 23:01:00,71.5,59.4,29.71,SSE,160,15.0,15.0,66,0.00,,,0.00,VWS V14.01,2013-08-17 04:01:00,
2013-08-16 23:06:00,71.6,59.5,29.72,SE,142,12.0,16.0,66,0.00,,,0.00,VWS V14.01,2013-08-17 04:06:00,
2013-08-16 23:11:00,71.6,59.5,29.72,South,169,19.0,21.0,66,0.00,,,0.00,VWS V14.01,2013-08-17 04:11:00,
2013-08-16 23:15:00,71.7,59.6,29.72,SSE,153,7.0,17.0,66,0.00,,,0.00,VWS V14.01,2013-08-17 04:15:00,
2013-08-16 23:16:00,71.6,59.5,29.71,SSE,168,14.0,21.0,66,0.00,,,0.00,VWS V14.01,2013-08-17 04:16:00,
2013-08-16 23:21:00,71.5,59.8,29.71,SE,142,14.0,23.0,67,0.00,,,0.00,VWS V14.01,2013-08-17 04:21:00,
2013-08-16 23:26:00,71.2,60.0,29.71,SSE,150,11.0,23.0,68,0.00,,,0.00,VWS V14.01,2013-08-17 04:26:00,
2013-08-16 23:30:00,71.2,59.6,29.72,SE,142,8.0,13.0,67,0.00,,,0.00,VWS V14.01,2013-08-17 04:30:00,
2013-08-16 23:31:00,70.8,59.6,29.71,SE,138,9.0,18.0,68,0.00,,,0.00,VWS V14.01,2013-08-17 04:31:00,
2013-08-16 23:36:00,70.6,59.8,29.71,South,169,9.0,19.0,69,0.00,,,0.00,VWS V14.01,2013-08-17 04:36:00,
2013-08-16 23:41:00,70.4,60.0,29.71,SE,144,11.0,19.0,70,0.00,,,0.00,VWS V14.01,2013-08-17 04:41:00,
2013-08-16 23:45:00,71.0,59.4,29.72,SE,132,8.0,15.0,67,0.00,,,0.00,VWS V14.01,2013-08-17 04:45:00,
2013-08-16 23:46:00,70.2,60.2,29.71,SSE,157,11.0,14.0,71,0.00,,,0.00,VWS V14.01,2013-08-17 04:46:00,
2013-08-16 23:51:00,69.9,60.0,29.71,SSE,159,11.0,19.0,71,0.00,,,0.00,VWS V14.01,2013-08-17 04:51:00,
2013-08-16 23:56:00,69.7,60.2,29.71,SSE,151,8.0,19.0,72,0.00,,,0.00,VWS V14.01,2013-08-17 04:56:00,